Location: Torrington
(42.0650°N, 104.1810°W)
Time: 17:39:14
(UTC-06:00)

Amateur Radio Satellites - All Passes

Search period start: 30 October 2014 17:09
Search period end: 31 October 2014 17:09
Location: Torrington, 42.0650°N, 104.1810°W

Satellite Date Start Highest point End Downlink Frequencies (MHz)
Time Altitude Azimuth
ISS 30 Oct 17:30:38 17:33:52 47° 220° (SW) 17:37:05 145.800 FM
JAS-2 30 Oct 17:33:26 17:39:40 83° 74° (ENE) 17:46:49 435.800 - 435.900 CW/SSB, 435.910 FM
Uosat F 30 Oct 17:56:13 17:59:14 16° 269° (W) 18:02:16 435.120 FM
Hamsat 30 Oct 18:03:42 18:07:53 76° 258° (WSW) 18:12:04 145.90 MHz
KITSAT 1 30 Oct 18:11:30 18:17:29 22° 32° (NNE) 18:23:26 435.175 FM
SO-50 30 Oct 18:16:50 18:18:09 11° 31° (NNE) 18:19:28 436.795 FM
OPAL 30 Oct 18:19:01 18:23:57 67° 104° (ESE) 18:28:52 ?
STRAND 1 30 Oct 18:36:41 18:39:29 15° 90° (E) 18:42:17 ?
AO-40 30 Oct 18:47:58 01:07:49 43° 170° (S) 02:59:21 Beacon 2401.320
JAS-2 30 Oct 19:21:56 19:25:45 16° 275° (W) 19:29:51 435.800 - 435.900 CW/SSB, 435.910 FM
SO-67 30 Oct 19:30:10 19:33:32 54° 260° (W) 19:36:55 435.3500 MHz FM
Oscar 10/S400 30 Oct 19:31:19 20:00:10 55° 192° (SSW) 04:38:47 145.825 - 145.975 CW/USB, Beacon 145.810 USB
SO-50 30 Oct 19:55:07 19:59:50 51° 52° (NE) 20:04:36 436.795 FM
OPAL 30 Oct 19:59:20 20:02:18 16° 302° (WNW) 20:05:15 ?
KITSAT 1 30 Oct 20:06:20 20:14:26 71° 56° (NE) 20:22:28 435.175 FM
HO-68 30 Oct 20:10:20 20:16:58 42° 64° (ENE) 20:23:37 435.675 MHz FM
STRAND 1 30 Oct 20:14:02 20:19:10 68° 287° (WNW) 20:24:15 ?
RS-15 30 Oct 20:24:26 20:34:00 36° 107° (ESE) 20:43:28 29.354 - 29.394 USB, Beacon 29.352 USB
Oscar 11 30 Oct 20:43:47 20:46:32 17° 64° (ENE) 20:49:17 145.825 FM, Beacon 2401.500 USB
UOSAT-12 30 Oct 20:43:50 20:47:20 20° 41° (NE) 20:50:47 437.025 FM, 437.400 FM
FUNcube-1 30 Oct 21:00:05 21:01:31 11° 61° (ENE) 21:02:57 145.950 - 145.970 MHz USB
SO-50 30 Oct 21:36:25 21:40:05 22° 249° (WSW) 21:43:45 436.795 FM
UKube-1 30 Oct 21:42:16 21:46:37 77° 75° (ENE) 21:51:00 145.840 MHz, 145.915 MHz
ZACube-1 30 Oct 21:50:07 21:54:17 37° 71° (ENE) 21:58:23 437.345 MHz
HO-68 30 Oct 21:58:05 22:04:40 39° 262° (W) 22:11:19 435.675 MHz FM
KITSAT 1 30 Oct 22:02:46 22:09:06 26° 255° (WSW) 22:15:25 435.175 FM
MaSat-1 30 Oct 22:03:21 22:06:57 35° 111° (ESE) 22:10:15 437.345 MHz
Oscar 11 30 Oct 22:18:11 22:22:20 47° 261° (W) 22:26:31 145.825 FM, Beacon 2401.500 USB
UOSAT-12 30 Oct 22:23:14 22:27:56 66° 240° (WSW) 22:32:31 437.025 FM, 437.400 FM
FUNcube-1 30 Oct 22:32:44 22:37:17 79° 258° (WSW) 22:41:45 145.950 - 145.970 MHz USB
RS-15 30 Oct 22:34:44 22:45:38 66° 309° (NW) 22:56:33 29.354 - 29.394 USB, Beacon 29.352 USB
ZACube-1 30 Oct 23:27:16 23:30:45 22° 266° (W) 23:34:12 437.345 MHz
MaSat-1 30 Oct 23:39:46 23:42:25 18° 305° (NW) 23:44:54 437.345 MHz
RS-15 31 Oct 00:51:52 01:00:37 26° 339° (NNW) 01:09:29 29.354 - 29.394 USB, Beacon 29.352 USB
Oscar 19 31 Oct 01:08:13 01:09:33 11° 88° (E) 01:10:54 437.125 CW, 437.150 USB
JAS-1B 31 Oct 01:47:46 01:54:20 36° 98° (E) 02:01:58 435.800 - 435.900 CW/SSB
Oscar 16 31 Oct 01:52:32 01:57:06 32° 96° (E) 02:01:38 437.025 USB, Beacon 2401.1428
Sapphire 31 Oct 02:04:29 02:09:17 34° 110° (ESE) 02:14:07 437.095 MHz 1200 baud AX-25 AFSK
Uribyol 2 31 Oct 02:24:43 02:29:06 27° 95° (E) 02:33:25 436.500 FM
PCSat 31 Oct 02:25:37 02:30:53 56° 114° (ESE) 02:36:12 145.825 MHz
AO-Echo 31 Oct 02:31:25 02:36:26 40° 97° (E) 02:41:22 ?
ITAMSAT 1 31 Oct 02:32:25 02:36:59 30° 96° (E) 02:41:29 435.822 SSB
Oscar 19 31 Oct 02:44:24 02:49:33 86° 285° (WNW) 02:54:40 437.125 CW, 437.150 USB
RS-15 31 Oct 03:09:44 03:18:08 24° 15° (NNE) 03:26:42 29.354 - 29.394 USB, Beacon 29.352 USB
AO-27 31 Oct 03:19:28 03:24:44 83° 104° (ESE) 03:29:57 436.795 MHz FM
Oscar 16 31 Oct 03:31:54 03:36:23 32° 293° (WNW) 03:40:53 437.025 USB, Beacon 2401.1428
Gurwin Techsat 1B 31 Oct 03:32:19 03:37:35 59° 101° (E) 03:42:49 435.225 FM
JAS-1B 31 Oct 03:38:17 03:44:58 48° 291° (WNW) 03:52:52 435.800 - 435.900 CW/SSB
TMSAT-1 31 Oct 03:39:03 03:44:13 50° 100° (E) 03:49:20 436.925 FM
Sapphire 31 Oct 03:47:38 03:52:38 37° 308° (NW) 03:57:40 437.095 MHz 1200 baud AX-25 AFSK
OPAL 31 Oct 03:57:51 04:01:07 17° 59° (ENE) 04:04:22 ?
Uribyol 2 31 Oct 04:03:51 04:08:38 38° 292° (WNW) 04:13:23 436.500 FM
PCSat 31 Oct 04:10:14 04:14:39 25° 314° (NW) 04:19:05 145.825 MHz
AO-Echo 31 Oct 04:10:32 04:14:58 28° 294° (WNW) 04:19:22 ?
ITAMSAT 1 31 Oct 04:11:46 04:16:28 35° 293° (WNW) 04:21:08 435.822 SSB
Uosat F 31 Oct 04:23:29 04:26:54 18° 92° (E) 04:30:18 435.120 FM
Oscar 19 31 Oct 04:26:21 04:28:05 12° 302° (WNW) 04:29:49 437.125 CW, 437.150 USB
JAS-2 31 Oct 04:44:25 04:48:31 15° 84° (E) 04:52:32 435.800 - 435.900 CW/SSB, 435.910 FM
AO-7 31 Oct 04:52:11 05:00:13 49° 101° (E) 05:08:13 29.400 - 29.500 MHz
AO-27 31 Oct 05:00:55 05:03:32 14° 301° (WNW) 05:06:08 436.795 MHz FM
Gurwin Techsat 1B 31 Oct 05:13:23 05:17:05 20° 298° (WNW) 05:20:47 435.225 FM
TMSAT-1 31 Oct 05:19:45 05:23:46 22° 297° (WNW) 05:27:46 436.925 FM
RS-15 31 Oct 05:23:04 05:33:54 53° 46° (NE) 05:45:07 29.354 - 29.394 USB, Beacon 29.352 USB
OPAL 31 Oct 05:34:25 05:39:30 65° 256° (WSW) 05:44:32 ?
Hamsat 31 Oct 05:49:42 05:52:38 18° 93° (E) 05:55:33 145.90 MHz
STRAND 1 31 Oct 05:52:37 05:56:38 24° 64° (ENE) 06:00:40 ?
Uosat F 31 Oct 06:01:05 06:06:00 54° 289° (WNW) 06:10:53 435.120 FM
Saudisat 1A 31 Oct 06:21:52 06:26:15 85° 303° (WNW) 06:30:41 436.775 MHz
JAS-2 31 Oct 06:26:45 06:34:40 77° 103° (ESE) 06:42:18 435.800 - 435.900 CW/SSB, 435.910 FM
PANSAT 31 Oct 06:27:59 06:28:48 11° 183° (S) 06:29:36 not established
AO-7 31 Oct 06:45:16 06:52:49 40° 300° (WNW) 07:00:23 29.400 - 29.500 MHz
Hamsat 31 Oct 07:24:47 07:28:43 39° 288° (WNW) 07:32:39 145.90 MHz
STRAND 1 31 Oct 07:30:38 07:35:32 45° 261° (W) 07:40:29 ?
RS-15 31 Oct 07:35:41 07:46:17 51° 248° (WSW) 07:57:22 29.354 - 29.394 USB, Beacon 29.352 USB
MaSat-1 31 Oct 07:47:19 07:49:49 65° 63° (ENE) 07:52:09 437.345 MHz
Saudisat 1A 31 Oct 08:04:12 08:06:30 14° 323° (NW) 08:08:48 436.775 MHz
JAS-2 31 Oct 08:12:48 08:18:52 26° 301° (WNW) 08:24:52 435.800 - 435.900 CW/SSB, 435.910 FM
SO-67 31 Oct 08:25:42 08:29:03 48° 286° (WNW) 08:32:22 435.3500 MHz FM
HO-68 31 Oct 09:24:40 09:31:24 41° 98° (E) 09:38:04 435.675 MHz FM
UKube-1 31 Oct 09:31:57 09:33:50 13° 91° (E) 09:35:43 145.840 MHz, 145.915 MHz
PCSat 31 Oct 09:32:18 09:33:36 11° 33° (NNE) 09:34:53 145.825 MHz
Oscar 11 31 Oct 10:05:28 10:09:15 29° 96° (E) 10:13:00 145.825 FM, Beacon 2401.500 USB
ISS 31 Oct 10:12:46 10:15:55 42° 139° (SE) 10:19:06 145.800 FM
SO-50 31 Oct 10:12:57 10:15:06 13° 108° (ESE) 10:17:16 436.795 FM
FUNcube-1 31 Oct 10:22:30 10:25:24 18° 93° (E) 10:28:17 145.950 - 145.970 MHz USB
KITSAT 1 31 Oct 10:35:00 10:42:34 46° 111° (ESE) 10:50:09 435.175 FM
Sapphire 31 Oct 10:51:37 10:56:29 32° 50° (NE) 11:01:19 437.095 MHz 1200 baud AX-25 AFSK
UKube-1 31 Oct 11:06:05 11:10:24 60° 287° (WNW) 11:14:41 145.840 MHz, 145.915 MHz
HO-68 31 Oct 11:12:27 11:19:03 41° 296° (WNW) 11:25:36 435.675 MHz FM
PCSat 31 Oct 11:13:06 11:18:23 49° 55° (NE) 11:23:37 145.825 MHz
ZACube-1 31 Oct 11:14:53 11:19:05 73° 102° (ESE) 11:23:13 437.345 MHz
Oscar 11 31 Oct 11:41:46 11:45:19 25° 292° (WNW) 11:48:51 145.825 FM, Beacon 2401.500 USB
ISS 31 Oct 11:49:42 11:52:42 30° 337° (NNW) 11:55:42 145.800 FM
SO-50 31 Oct 11:50:32 11:55:01 69° 305° (NW) 11:59:40 436.795 FM
FUNcube-1 31 Oct 11:58:04 12:01:56 37° 289° (WNW) 12:05:45 145.950 - 145.970 MHz USB
Oscar 19 31 Oct 12:24:29 12:28:00 19° 62° (ENE) 12:31:31 437.125 CW, 437.150 USB
KITSAT 1 31 Oct 12:30:19 12:37:59 45° 312° (NW) 12:45:41 435.175 FM
UOSAT-12 31 Oct 12:34:51 12:39:01 34° 115° (ESE) 12:43:16 437.025 FM, 437.400 FM
Sapphire 31 Oct 12:34:55 12:39:58 40° 248° (WSW) 12:44:59 437.095 MHz 1200 baud AX-25 AFSK
JAS-1B 31 Oct 12:36:22 12:40:52 25° 62° (ENE) 12:45:25 435.800 - 435.900 CW/SSB
ZACube-1 31 Oct 12:53:55 12:54:52 11° 299° (WNW) 12:55:49 437.345 MHz
PCSat 31 Oct 12:57:10 13:01:28 24° 253° (WSW) 13:05:44 145.825 MHz
AO-27 31 Oct 13:00:54 13:04:19 18° 61° (ENE) 13:07:45 436.795 MHz FM
Oscar 16 31 Oct 13:09:48 13:14:44 49° 71° (ENE) 13:19:40 437.025 USB, Beacon 2401.1428
Saudisat 1A 31 Oct 13:09:57 13:12:20 14° 37° (NE) 13:14:42 436.775 MHz
Gurwin Techsat 1B 31 Oct 13:17:26 13:19:57 14° 58° (ENE) 13:22:29 435.225 FM
TMSAT-1 31 Oct 13:24:43 13:26:26 12° 57° (ENE) 13:28:09 436.925 FM
ISS 31 Oct 13:28:00 13:30:10 16° 357° (N) 13:32:19 145.800 FM
SO-50 31 Oct 13:34:21 13:36:28 13° 326° (NW) 13:38:37 436.795 FM
Uribyol 2 31 Oct 13:42:48 13:47:43 43° 69° (ENE) 13:52:38 436.500 FM
AO-Echo 31 Oct 13:44:36 13:49:26 52° 71° (ENE) 13:54:27 ?
ITAMSAT 1 31 Oct 13:50:41 13:55:40 47° 70° (ENE) 14:00:40 435.822 SSB
Oscar 19 31 Oct 14:01:51 14:06:54 57° 259° (W) 14:11:58 437.125 CW, 437.150 USB
AO-7 31 Oct 14:03:38 14:08:17 17° 46° (NE) 14:12:55 29.400 - 29.500 MHz
UOSAT-12 31 Oct 14:14:59 14:19:10 32° 313° (NW) 14:23:25 437.025 FM, 437.400 FM
JAS-1B 31 Oct 14:25:51 14:31:19 44° 261° (W) 14:36:47 435.800 - 435.900 CW/SSB
KITSAT 1 31 Oct 14:31:10 14:35:48 16° 338° (NNW) 14:40:28 435.175 FM
AO-27 31 Oct 14:38:08 14:43:18 64° 258° (WSW) 14:48:31 436.795 MHz FM
Saudisat 1A 31 Oct 14:48:07 14:52:34 86° 57° (ENE) 14:57:00 436.775 MHz
Oscar 16 31 Oct 14:50:32 14:54:20 21° 267° (W) 14:58:08 437.025 USB, Beacon 2401.1428
Gurwin Techsat 1B 31 Oct 14:53:51 14:59:10 87° 256° (WSW) 15:04:31 435.225 FM
TMSAT-1 31 Oct 15:00:10 15:05:28 81° 75° (ENE) 15:10:48 436.925 FM
ISS 31 Oct 15:05:02 15:07:44 22° 17° (NNE) 15:10:26 145.800 FM
Uribyol 2 31 Oct 15:23:09 15:27:20 24° 266° (W) 15:31:33 436.500 FM
AO-Echo 31 Oct 15:25:03 15:28:32 19° 269° (W) 15:32:07 ?
ITAMSAT 1 31 Oct 15:31:24 15:35:22 22° 267° (W) 15:39:22 435.822 SSB
Uosat F 31 Oct 15:36:56 15:41:08 27° 65° (ENE) 15:45:21 435.120 FM
AO-7 31 Oct 15:51:24 15:59:34 68° 67° (ENE) 16:07:46 29.400 - 29.500 MHz
KITSAT 1 31 Oct 16:32:17 16:35:26 12° 10° (N) 16:38:35 435.175 FM
Gurwin Techsat 1B 31 Oct 16:39:08 16:39:52 10° 273° (W) 16:40:37 435.225 FM
JAS-2 31 Oct 16:39:24 16:45:07 36° 63° (ENE) 16:51:28 435.800 - 435.900 CW/SSB, 435.910 FM
ISS 31 Oct 16:41:25 16:44:46 85° 216° (SW) 16:48:06 145.800 FM
TMSAT-1 31 Oct 16:43:47 16:46:00 13° 271° (W) 16:48:14 436.925 FM
Hamsat 31 Oct 16:44:23 16:46:39 14° 64° (ENE) 16:48:55 145.90 MHz
